[[{"header":{"parameterUnit":"m.s-1","parameterCategory":1,"la1":30.2991,"la2":30.254,"lo1":-89.0895,"lo2":-89.0444,"dy":0.0017,"dx":0.0017,"nx":28,"ny":28,"refTime":"2024-03-22T03:00:00:Z","depth":0,"parameterNumber":2,"parameterNumberName":"U-component_of_WINDS"},"data":[0,0,0,0,0,0,0,0,0,0,0,0,0,0,0,0,0,0,0,0,0,0,0,0,0,0,0,0,0,0,0,0,0,0,0,0,0,0,0,0,0,0,0,0,0,0,0,0,0,0,0,0,0,0,0,0,0,0,-1.4062,-1.4062,0,-1.4109,-1.4109,-1.411,-1.4062,-1.406,-1.4058,-1.4056,-1.4105,-1.4108,-1.4111,0,0,0,0,0,0,0,0,0,0,0,0,0,-1.3932,-1.3935,-1.4062,-1.4062,-1.4063,-1.4109,-1.4109,-1.411,-1.4062,-1.406,-1.4058,-1.4056,-1.4104,-1.4108,-1.4112,0,0,0,0,0,0,0,0,0,0,0,0,0,-1.3985,-1.3936,-1.4062,-1.4045,-1.4044,-1.4108,-1.4109,-1.411,-1.4063,-1.406,-1.4057,-1.4054,-1.4103,-1.4108,-1.4112,-1.4196,0,0,-1.4126,-1.4128,0,0,0,0,0,0,0,0,-1.3982,-1.399,-1.4046,-1.4046,-1.4045,-1.4076,-1.4081,-1.4139,-1.4063,-1.4055,-1.4056,-1.4053,-1.4098,-1.4103,-1.4118,-1.4199,-1.4201,-1.4127,-1.4129,-1.4131,-1.4133,0,0,0,0,0,0,0,-1.3978,-1.3987,-1.408,-1.4047,-1.4046,-1.4035,-1.4039,-1.4092,-1.4092,-1.4056,-1.4053,-1.4059,-1.4097,-1.4114,-1.4119,-1.4202,-1.4126,-1.413,-1.4133,-1.4135,-1.4354,-1.4357,0,0,0,0,0,0,-1.3976,-1.3984,-1.4079,-1.4082,-1.4006,-1.404,-1.4044,-1.4069,-1.4091,-1.4092,-1.4061,-1.4056,-1.4107,-1.4113,-1.412,-1.4221,-1.4131,-1.4135,-1.4138,-1.4351,-1.4355,-1.4358,0,0,0,0,0,0,-1.3974,-1.3985,-1.4077,-1.4032,-1.4043,-1.4045,-1.4073,-1.4072,-1.4088,-1.4095,-1.4095,-1.4078,-1.4105,-1.4114,-1.4178,-1.4222,-1.4138,-1.4142,-1.4348,-1.4353,-1.4357,-1.4422,0,0,0,0,0,0,-1.397,-1.3984,-1.4016,-1.4033,-1.4046,-1.4134,-1.4076,-1.4075,-1.4096,-1.409,-1.4111,-1.4112,-1.4104,-1.4171,-1.4182,-1.4226,-1.4145,-1.4344,-1.435,-1.4355,-1.4416,-1.4428,-1.4439,0,0,0,0,0,-1.3966,-1.4033,-1.4018,-1.403,-1.4085,-1.4136,-1.4143,-1.4132,-1.41,-1.4132,-1.4136,-1.4111,-1.4215,-1.4178,-1.419,-1.4236,-1.4341,-1.4348,-1.4355,-1.4411,-1.4426,-1.4438,0,0,0,0,0,0,-1.4021,-1.4035,-1.4018,-1.4093,-1.4114,-1.4128,-1.4168,-1.4149,-1.4179,-1.4173,-1.4158,-1.4164,-1.4232,-1.424,-1.4199,-1.4319,-1.4273,-1.4283,-1.4311,-1.4325,-1.4337,-1.4333,-1.4149,0,0,0,0,0,-1.4042,-1.4082,-1.4091,-1.4156,-1.4168,-1.4166,-1.4188,-1.4178,-1.4199,-1.4208,-1.4217,-1.4239,-1.4276,-1.4301,-1.4336,-1.4417,-1.4421,-1.4455,-1.4466,-1.4475,-1.4484,-1.4528,-1.4543,-1.4381,-1.4381,-1.4381,0,0,-1.4085,-1.4098,-1.4124,-1.4168,-1.4183,-1.4225,-1.4174,-1.422,-1.4251,-1.4215,-1.4276,-1.4284,-1.4307,-1.438,-1.4412,-1.4389,-1.453,-1.4484,-1.4492,-1.4495,-1.4536,-1.4552,-1.4565,-1.4386,-1.4385,-1.4384,0,0,-1.4186,-1.4199,-1.4254,-1.4271,-1.4294,-1.4292,-1.4306,-1.4323,-1.4327,-1.4388,-1.4362,-1.4399,-1.4464,-1.4482,-1.4499,-1.4608,-1.4585,-1.4619,-1.4679,-1.4722,-1.4735,-1.4746,-1.4785,-1.4799,-1.4628,-1.4628,-1.4628,0,-1.4237,-1.4298,-1.4286,-1.4334,-1.4355,-1.4323,-1.438,-1.4396,-1.443,-1.4445,-1.4418,-1.45,-1.4513,-1.459,-1.4616,-1.4632,-1.4647,-1.4617,-1.4734,-1.4745,-1.4755,-1.4792,-1.4807,-1.4632,-1.4632,-1.4631,-1.4631,0,-1.436,-1.4404,-1.4446,-1.4479,-1.4504,-1.4556,-1.4552,-1.4579,-1.4567,-1.4569,-1.4632,-1.4647,-1.4685,-1.4703,-1.4691,-1.4778,-1.4763,-1.4736,-1.4689,-1.4775,-1.4809,-1.4823,-1.4638,-1.4636,-1.4635,-1.4634,0,0,-1.4496,-1.4522,-1.4538,-1.4552,-1.4576,-1.461,-1.4661,-1.4698,-1.4721,-1.4746,-1.4789,-1.4845,-1.482,-1.484,-1.4831,-1.4868,-1.4954,-1.4836,-1.4836,-1.4857,-1.5051,-1.5071,-1.5088,-1.4939,-1.4942,-1.4944,-1.5049,0,-1.4597,-1.4685,-1.4676,-1.476,-1.4801,-1.4772,-1.4817,-1.4836,-1.484,-1.4875,-1.4878,-1.4918,-1.4882,-1.4894,-1.493,-1.4936,-1.4992,-1.4928,-1.4979,-1.4981,-1.4974,-1.5105,-1.5127,-1.5225,-1.5062,-1.5064,-1.5066,0,-1.4727,-1.4756,-1.4844,-1.4862,-1.4879,-1.4919,-1.4952,-1.4986,-1.5008,-1.5008,-1.5031,-1.5015,-1.5067,-1.5019,-1.5091,-1.5048,-1.5068,-1.5075,-1.5078,-1.5082,-1.5029,-1.5113,-1.5256,-1.5271,-1.5087,-1.5085,-1.5084,0,-1.4817,-1.4878,-1.4939,-1.4953,-1.4975,-1.5005,-1.5015,-1.5035,-1.5058,-1.5087,-1.5102,-1.5137,-1.5156,-1.5184,-1.5179,-1.5144,-1.5252,-1.5204,-1.5254,-1.5254,-1.5278,-1.5276,-1.5426,-1.5291,-1.5291,-1.5291,-1.529,0,-1.4931,-1.4986,-1.498,-1.5018,-1.5079,-1.5068,-1.5129,-1.5136,-1.5154,-1.5193,-1.517,-1.5207,-1.5198,-1.5235,-1.5231,-1.5291,-1.53,-1.5302,-1.53,-1.5304,-1.5304,-1.5317,-1.531,-1.5295,-1.5294,-1.5293,-1.5292,0,-1.5042,-1.504,-1.5105,-1.5121,-1.5126,-1.5171,-1.5185,-1.5221,-1.5222,-1.5272,-1.5283,-1.5286,-1.5328,-1.5325,-1.5373,-1.5371,-1.5445,-1.5436,-1.5438,-1.5436,-1.5486,-1.5481,-1.5649,-1.5671,-1.5523,-1.5524,-1.5525,0,-1.5114,-1.5156,-1.5177,-1.5201,-1.5214,-1.5254,-1.5277,-1.5268,-1.5293,-1.5322,-1.5354,-1.5394,-1.5426,-1.5495,-1.5502,-1.5539,-1.553,-1.5586,-1.5535,-1.5538,-1.5531,-1.5528,-1.5533,-1.5596,-1.5598,-1.5599,-1.56,0,-1.5244,-1.5241,-1.5275,-1.5309,-1.5338,-1.5364,-1.5389,-1.541,-1.5404,-1.5433,-1.5476,-1.5501,-1.555,-1.559,-1.5626,-1.5637,-1.5618,-1.5616,-1.563,-1.5634,-1.5634,-1.5635,-1.5465,-1.5612,-1.5611,-1.561,-1.561,-1.5609,-1.5338,-1.5374,-1.5394,-1.5433,-1.545,-1.5474,-1.5508,-1.5514,-1.555,-1.5589,-1.5582,-1.563,-1.5652,-1.5697,-1.5712,-1.575,-1.573,-1.575,-1.5755,-1.576,-1.5766,-1.5628,-1.5757,-1.5756,-1.5756,-1.5756,-1.5755,0,-1.5466,-1.5477,-1.5514,-1.5548,-1.5579,-1.5558,-1.5584,-1.5612,-1.5655,-1.5676,-1.5708,-1.5758,-1.5797,-1.5807,-1.5845,-1.5874,-1.5866,-1.5884,-1.5882,-1.5885,-1.5781,-1.5766,-1.589,-1.589,-1.589,-1.589,-1.589,-1.589,-1.5536,-1.5596,-1.5596,-1.5664,-1.5676,-1.5723,-1.5739,-1.5761,-1.5778,-1.5835,-1.5867,-1.5874,-1.5891,-1.593,-1.5966,-1.5968,-1.5983,-1.6005,-1.6003,-1.5906,-1.5892,-1.588,-1.5865,-1.6008,-1.6008,-1.6104,-1.6105,-1.6105]},{"header":{"parameterUnit":"m.s-1","parameterCategory":1,"la1":30.2991,"la2":30.254,"lo1":-89.0895,"lo2":-89.0444,"dy":0.0017,"dx":0.0017,"nx":28,"ny":28,"refTime":"2024-03-22T03:00:00:Z","depth":0,"parameterNumber":3,"parameterNumberName":"V-component_of_WINDS"},"data":[0,0,0,0,0,0,0,0,0,0,0,0,0,0,0,0,0,0,0,0,0,0,0,0,0,0,0,0,0,0,0,0,0,0,0,0,0,0,0,0,0,0,0,0,0,0,0,0,0,0,0,0,0,0,0,0,0,0,-1.1697,-1.1696,0,-1.1686,-1.1686,-1.1686,-1.1647,-1.1646,-1.1645,-1.1644,-1.1634,-1.1635,-1.1635,0,0,0,0,0,0,0,0,0,0,0,0,0,-1.1682,-1.1682,-1.1697,-1.1696,-1.1696,-1.1686,-1.1686,-1.1686,-1.1647,-1.1646,-1.1645,-1.1644,-1.1634,-1.1635,-1.1635,0,0,0,0,0,0,0,0,0,0,0,0,0,-1.1682,-1.1682,-1.1697,-1.1676,-1.1674,-1.1686,-1.1686,-1.1686,-1.1647,-1.1646,-1.1644,-1.1643,-1.1634,-1.1635,-1.1635,-1.1668,0,0,-1.1638,-1.1638,0,0,0,0,0,0,0,0,-1.1682,-1.1682,-1.1679,-1.1677,-1.1675,-1.1666,-1.1677,-1.168,-1.1647,-1.1657,-1.1644,-1.1642,-1.1646,-1.1646,-1.1647,-1.1668,-1.1667,-1.1638,-1.1639,-1.1639,-1.1639,0,0,0,0,0,0,0,-1.1682,-1.1682,-1.1693,-1.1679,-1.1676,-1.1666,-1.1665,-1.1678,-1.1659,-1.1656,-1.1653,-1.1653,-1.1645,-1.1646,-1.1646,-1.1667,-1.1638,-1.1639,-1.1639,-1.164,-1.1713,-1.1714,0,0,0,0,0,0,-1.1685,-1.1683,-1.1693,-1.1692,-1.1675,-1.1668,-1.1666,-1.167,-1.1659,-1.1656,-1.1654,-1.1651,-1.1645,-1.1645,-1.1646,-1.1683,-1.1639,-1.164,-1.164,-1.1711,-1.1713,-1.1715,0,0,0,0,0,0,-1.1684,-1.1686,-1.1693,-1.1687,-1.1687,-1.167,-1.1675,-1.1671,-1.1672,-1.1657,-1.1654,-1.1659,-1.1644,-1.1645,-1.1662,-1.1682,-1.164,-1.1641,-1.171,-1.1712,-1.1714,-1.1757,0,0,0,0,0,0,-1.1684,-1.1686,-1.1699,-1.1687,-1.1687,-1.171,-1.1676,-1.1672,-1.1674,-1.167,-1.1661,-1.1658,-1.1643,-1.1661,-1.1663,-1.1682,-1.1642,-1.1708,-1.1711,-1.1713,-1.1754,-1.176,-1.1766,0,0,0,0,0,-1.1684,-1.1711,-1.1699,-1.1701,-1.1702,-1.1712,-1.1712,-1.1694,-1.1676,-1.1688,-1.1678,-1.1658,-1.1679,-1.1664,-1.1665,-1.1685,-1.1707,-1.171,-1.1713,-1.1751,-1.1759,-1.1766,0,0,0,0,0,0,-1.1726,-1.171,-1.1696,-1.1721,-1.1718,-1.1705,-1.172,-1.1703,-1.1705,-1.1702,-1.1679,-1.1677,-1.1699,-1.1693,-1.1676,-1.1715,-1.169,-1.1693,-1.1718,-1.1726,-1.1732,-1.1733,-1.1642,0,0,0,0,0,-1.1738,-1.1747,-1.1732,-1.1755,-1.1755,-1.1738,-1.1741,-1.1727,-1.1723,-1.1722,-1.1713,-1.171,-1.1716,-1.172,-1.1725,-1.1753,-1.175,-1.1767,-1.1773,-1.1778,-1.1782,-1.1795,-1.1803,-1.1725,-1.1725,-1.1725,0,0,-1.1764,-1.1756,-1.1763,-1.1764,-1.176,-1.1769,-1.1737,-1.1748,-1.1755,-1.1724,-1.174,-1.1733,-1.1729,-1.1751,-1.1761,-1.1748,-1.1802,-1.1782,-1.1786,-1.1787,-1.1799,-1.1807,-1.1813,-1.1727,-1.1727,-1.1726,0,0,-1.1815,-1.181,-1.1828,-1.1825,-1.1819,-1.1807,-1.1811,-1.1801,-1.1795,-1.1811,-1.1787,-1.1795,-1.1805,-1.1803,-1.1803,-1.1851,-1.1833,-1.1853,-1.1885,-1.1899,-1.1905,-1.191,-1.1928,-1.1934,-1.1857,-1.1857,-1.1857,0,-1.1847,-1.186,-1.184,-1.1853,-1.1854,-1.1825,-1.1843,-1.1841,-1.1837,-1.1838,-1.1823,-1.1835,-1.183,-1.1851,-1.1863,-1.1864,-1.1868,-1.1855,-1.1906,-1.1911,-1.1916,-1.1932,-1.1938,-1.1859,-1.1859,-1.1859,-1.1859,0,-1.19,-1.191,-1.1925,-1.1922,-1.1924,-1.194,-1.1922,-1.1927,-1.1912,-1.1902,-1.1918,-1.1911,-1.1913,-1.1917,-1.1903,-1.1936,-1.1928,-1.191,-1.1884,-1.1926,-1.1941,-1.1947,-1.1863,-1.1862,-1.1861,-1.1861,0,0,-1.1979,-1.1963,-1.1969,-1.1966,-1.1957,-1.1964,-1.1978,-1.198,-1.1984,-1.1982,-1.1993,-1.2002,-1.1985,-1.1985,-1.1971,-1.1983,-1.2021,-1.1963,-1.1962,-1.1974,-1.2057,-1.2071,-1.2078,-1.2009,-1.201,-1.2011,-1.2057,0,-1.2027,-1.205,-1.2032,-1.2058,-1.2066,-1.2038,-1.205,-1.2046,-1.2036,-1.2042,-1.2031,-1.2038,-1.2015,-1.2014,-1.2025,-1.2014,-1.2038,-1.2011,-1.2019,-1.202,-1.2022,-1.2086,-1.2101,-1.2145,-1.2063,-1.2064,-1.2064,0,-1.2088,-1.2087,-1.2115,-1.2103,-1.2105,-1.2117,-1.2116,-1.2122,-1.2116,-1.2108,-1.2107,-1.2089,-1.2102,-1.2076,-1.2092,-1.2075,-1.2077,-1.2072,-1.2073,-1.2074,-1.2045,-1.2089,-1.2159,-1.2166,-1.2073,-1.2073,-1.2072,0,-1.2142,-1.2149,-1.2166,-1.2164,-1.2151,-1.2159,-1.2154,-1.2147,-1.2149,-1.2148,-1.2149,-1.215,-1.2151,-1.2152,-1.2135,-1.2117,-1.2154,-1.2126,-1.2148,-1.2148,-1.2157,-1.2157,-1.2229,-1.2158,-1.2158,-1.2158,-1.2158,0,-1.2199,-1.2216,-1.219,-1.22,-1.2219,-1.2197,-1.2216,-1.2208,-1.2201,-1.221,-1.2185,-1.2194,-1.217,-1.2176,-1.2162,-1.2178,-1.2178,-1.2172,-1.2169,-1.2175,-1.2176,-1.2176,-1.2173,-1.216,-1.2159,-1.2159,-1.2159,0,-1.2263,-1.2246,-1.2263,-1.2248,-1.2245,-1.2259,-1.2247,-1.2256,-1.2244,-1.2254,-1.2256,-1.2238,-1.2243,-1.2225,-1.2228,-1.2219,-1.2242,-1.2233,-1.2244,-1.2242,-1.2264,-1.2262,-1.234,-1.2349,-1.2272,-1.2272,-1.2273,0,-1.2301,-1.2313,-1.23,-1.2303,-1.2299,-1.2305,-1.2307,-1.2285,-1.2288,-1.2281,-1.2291,-1.2294,-1.2296,-1.2305,-1.2293,-1.2294,-1.2285,-1.2312,-1.2285,-1.2291,-1.2286,-1.2286,-1.2287,-1.2318,-1.2319,-1.232,-1.232,0,-1.2369,-1.2359,-1.2362,-1.2362,-1.2364,-1.2363,-1.2361,-1.2365,-1.2342,-1.2346,-1.2351,-1.2352,-1.2354,-1.2357,-1.2356,-1.235,-1.2332,-1.2329,-1.2334,-1.2341,-1.2346,-1.2344,-1.226,-1.2327,-1.2327,-1.2326,-1.2326,-1.2325,-1.2421,-1.2431,-1.2422,-1.2426,-1.2422,-1.2419,-1.2427,-1.2416,-1.2419,-1.2419,-1.2406,-1.2413,-1.2406,-1.2402,-1.2399,-1.2404,-1.2392,-1.2399,-1.2401,-1.2403,-1.2407,-1.2345,-1.2404,-1.2404,-1.2403,-1.2403,-1.2403,0,-1.2488,-1.2481,-1.2484,-1.2481,-1.2484,-1.2465,-1.2461,-1.2465,-1.2471,-1.2466,-1.2468,-1.2473,-1.2476,-1.2463,-1.2464,-1.247,-1.2462,-1.2472,-1.2471,-1.247,-1.2418,-1.2414,-1.2478,-1.2478,-1.2478,-1.2478,-1.2478,-1.2478,-1.2523,-1.2538,-1.2528,-1.2541,-1.2533,-1.254,-1.2539,-1.2537,-1.2532,-1.2539,-1.2541,-1.2532,-1.2524,-1.2524,-1.2526,-1.2522,-1.2523,-1.2536,-1.2529,-1.2481,-1.2474,-1.2467,-1.2463,-1.2536,-1.2536,-1.2581,-1.2581,-1.2581]}]]